Weather History for Liberal, KS

Change the Weather History Date:

Wednesday, June 19, 2013

  Actual Average Record
Temperature  
Mean Temperature 74 °F -  
Max Temperature 87 °F 91 °F 106 °F (1974)
Min Temperature 62 °F 61 °F 44 °F (1976)
Cooling Degree Days 10    
Growing Degree Days 24 (Base 50)    
Moisture  
Dew Point 61 °F    
Average Humidity 67    
Maximum Humidity 88    
Minimum Humidity 38    
Precipitation  
Precipitation 1.26 in - - ()
Sea Level Pressure  
Sea Level Pressure 29.97 in    
Wind  
Wind Speed 17 mph (SSE)    
Max Wind Speed 32 mph    
Max Gust Speed 39 mph    
Visibility 10 miles    
Events Thunderstorm    
Averages and records for this station are not official NWS values.
T = Trace of Precipitation, MM = Missing Value Source: NWS Daily Summary

Daily Weather History Graph

Daily Weather History Graph

Search for Another Location

Airport:

Trip Planner

Search our weather history database for the weather conditions in past years. The results will help you decide how hot, cold, wet, or windy it might be!

Date:

Astronomy

Jun. 19, 2013 Rise Set
Actual Time 6:24 AM CDT 9:06 PM CDT
Civil Twilight 5:53 AM CDT 9:37 PM CDT
Nautical Twilight 5:14 AM CDT 10:16 PM CDT
Astronomical Twilight 4:31 AM CDT 10:59 PM CDT
Moon 5:05 PM CDT (6/19) 3:05 AM CDT (6/19)
Length of Visible Light 15h 44m
Length of Day
14h 42m
Waxing Gibbous, 80% of the Moon is Illuminated
Jun 19
Waxing Gibbous
Jun 23
Full
Jun 29
Last Quarter
Jul 8
New
Jul 15
First Quarter

Hourly Weather History & Observations

Time (CDT) Temp. Heat Index Dew Point Humidity Pressure Visibility Wind Dir Wind Speed Gust Speed Precip Events Conditions
12:35 AM 64.4 °F - 55.4 °F 73% 30.04 in 8.0 mi East 18.4 mph - 1.16 in Thunderstorm Thunderstorm
12:55 AM 64.4 °F - 57.2 °F 77% 30.05 in 10.0 mi East 11.5 mph - 1.17 in Thunderstorm Scattered Clouds
1:15 AM 64.4 °F - 57.2 °F 77% 30.05 in 10.0 mi ESE 11.5 mph - N/A   Mostly Cloudy
1:35 AM 66.2 °F - 59.0 °F 78% 30.06 in 10.0 mi East 10.4 mph - N/A   Overcast
1:55 AM 66.2 °F - 59.0 °F 78% 30.08 in 10.0 mi East 10.4 mph - N/A   Mostly Cloudy
2:15 AM 66.2 °F - 60.8 °F 83% 30.05 in 10.0 mi ESE 16.1 mph 19.6 mph 0.02 in   Overcast
2:35 AM 66.2 °F - 60.8 °F 83% 30.04 in 10.0 mi ESE 13.8 mph - 0.03 in Thunderstorm Mostly Cloudy
2:55 AM 66.2 °F - 60.8 °F 83% 30.06 in 10.0 mi SE 11.5 mph - 0.03 in   Mostly Cloudy
3:15 AM 66.2 °F - 60.8 °F 83% 30.05 in 10.0 mi SE 17.3 mph - 0.01 in   Overcast
3:35 AM 66.2 °F - 60.8 °F 83% 30.05 in 10.0 mi SE 15.0 mph - 0.01 in   Scattered Clouds
3:55 AM 64.4 °F - 59.0 °F 83% 30.06 in 10.0 mi SE 11.5 mph - 0.01 in   Mostly Cloudy
4:15 AM 64.4 °F - 59.0 °F 83% 30.06 in 10.0 mi ESE 9.2 mph - 0.01 in   Mostly Cloudy
4:35 AM 64.4 °F - 59.0 °F 83% 30.07 in 10.0 mi SSE 6.9 mph - 0.01 in   Overcast
4:55 AM 64.4 °F - 59.0 °F 83% 30.07 in 10.0 mi SSE 9.2 mph - 0.01 in   Mostly Cloudy
5:15 AM 64.4 °F - 60.8 °F 88% 30.06 in 10.0 mi SSE 12.7 mph - N/A   Overcast
5:35 AM 64.4 °F - 59.0 °F 83% 30.00 in 10.0 mi SE 25.3 mph 32.2 mph 0.02 in   Mostly Cloudy
5:55 AM 62.6 °F - 57.2 °F 82% 29.96 in 10.0 mi SE 32.2 mph 39.1 mph 0.02 in   Mostly Cloudy
6:15 AM 62.6 °F - 55.4 °F 77% 29.97 in 10.0 mi SSE 24.2 mph 29.9 mph N/A   Scattered Clouds
6:35 AM 62.6 °F - 55.4 °F 77% 29.95 in 10.0 mi South 21.9 mph 33.4 mph N/A   Clear
6:55 AM 64.4 °F - 57.2 °F 77% 30.00 in 10.0 mi South 18.4 mph 23.0 mph N/A   Clear
7:15 AM 64.4 °F - 57.2 °F 77% 29.99 in 10.0 mi SSW 19.6 mph - N/A   Clear
7:35 AM 64.4 °F - 57.2 °F 77% 30.01 in 10.0 mi SSW 23.0 mph 28.8 mph N/A   Partly Cloudy
7:55 AM 64.4 °F - 57.2 °F 77% 30.00 in 10.0 mi SSW 23.0 mph 31.1 mph N/A   Clear
8:15 AM 66.2 °F - 59.0 °F 78% 30.00 in 10.0 mi SSW 21.9 mph 27.6 mph N/A   Scattered Clouds
8:35 AM 66.2 °F - 59.0 °F 78% 29.99 in 10.0 mi SSW 19.6 mph 26.5 mph N/A   Partly Cloudy
8:55 AM 66.2 °F - 60.8 °F 83% 29.99 in 10.0 mi SSW 19.6 mph - N/A   Scattered Clouds
9:15 AM 66.2 °F - 60.8 °F 83% 30.01 in 10.0 mi SSW 16.1 mph 25.3 mph N/A   Mostly Cloudy
9:35 AM 69.8 °F - 62.6 °F 78% 30.01 in 10.0 mi SSW 20.7 mph - N/A   Mostly Cloudy
9:55 AM 69.8 °F - 62.6 °F 78% 30.01 in 10.0 mi SSW 17.3 mph - N/A   Overcast
10:15 AM 69.8 °F - 62.6 °F 78% 30.01 in 10.0 mi South 19.6 mph - N/A   Overcast
10:35 AM 69.8 °F - 62.6 °F 78% 30.00 in 10.0 mi South 15.0 mph - N/A   Overcast
10:55 AM 69.8 °F - 62.6 °F 78% 30.00 in 10.0 mi South 15.0 mph - N/A   Overcast
11:15 AM 71.6 °F - 62.6 °F 73% 30.00 in 10.0 mi South 13.8 mph - N/A   Overcast
11:35 AM 73.4 °F - 64.4 °F 73% 29.99 in 10.0 mi SSW 18.4 mph - N/A   Overcast
11:55 AM 75.2 °F - 64.4 °F 69% 30.00 in 10.0 mi SSW 17.3 mph 23.0 mph N/A   Overcast
12:15 PM 75.2 °F - 64.4 °F 69% 29.99 in 10.0 mi SW 19.6 mph 25.3 mph N/A   Overcast
12:35 PM 75.2 °F - 64.4 °F 69% 29.99 in 10.0 mi SSW 18.4 mph 21.9 mph N/A   Overcast
12:55 PM 75.2 °F - 64.4 °F 69% 29.99 in 10.0 mi SSW 20.7 mph 24.2 mph 0.02 in   Overcast
1:15 PM 77.0 °F - 62.6 °F 61% 29.99 in 10.0 mi SSW 17.3 mph - N/A   Overcast
1:35 PM 78.8 °F - 64.4 °F 61% 29.98 in 10.0 mi SSW 17.3 mph - N/A   Overcast
1:55 PM 78.8 °F - 64.4 °F 61% 29.98 in 10.0 mi South 19.6 mph 23.0 mph N/A   Mostly Cloudy
2:15 PM 80.6 °F 82.3 °F 64.4 °F 58% 29.97 in 10.0 mi South 20.7 mph 25.3 mph N/A   Mostly Cloudy
2:35 PM 82.4 °F 83.9 °F 64.4 °F 54% 29.97 in 10.0 mi South 20.7 mph 25.3 mph N/A   Scattered Clouds
2:55 PM 82.4 °F 83.9 °F 64.4 °F 54% 29.96 in 10.0 mi South 17.3 mph 25.3 mph N/A   Partly Cloudy
3:15 PM 84.2 °F 85.6 °F 64.4 °F 51% 29.96 in 10.0 mi South 20.7 mph 25.3 mph N/A   Clear
3:35 PM 86.0 °F 87.3 °F 64.4 °F 48% 29.95 in 10.0 mi South 21.9 mph 27.6 mph N/A   Clear
3:55 PM 86.0 °F 86.6 °F 62.6 °F 45% 29.94 in 10.0 mi South 19.6 mph 27.6 mph N/A   Clear
4:15 PM 86.0 °F 86.6 °F 62.6 °F 45% 29.93 in 10.0 mi South 23.0 mph 28.8 mph N/A   Clear
4:35 PM 86.0 °F 86.1 °F 60.8 °F 43% 29.92 in 10.0 mi South 18.4 mph 25.3 mph N/A   Clear
4:55 PM 86.0 °F 86.1 °F 60.8 °F 43% 29.91 in 10.0 mi South 23.0 mph 27.6 mph N/A   Clear
5:15 PM 87.8 °F 87.6 °F 60.8 °F 40% 29.90 in 10.0 mi South 24.2 mph 28.8 mph N/A   Clear
5:35 PM 87.8 °F 87.1 °F 59.0 °F 38% 29.89 in 10.0 mi South 19.6 mph 29.9 mph N/A   Clear
5:55 PM 87.8 °F 87.1 °F 59.0 °F 38% 29.88 in 10.0 mi South 20.7 mph 28.8 mph N/A   Clear
6:15 PM 87.8 °F 87.1 °F 59.0 °F 38% 29.87 in 10.0 mi South 19.6 mph 27.6 mph N/A   Clear
6:35 PM 84.2 °F 83.5 °F 57.2 °F 40% 29.87 in 10.0 mi South 24.2 mph 29.9 mph N/A   Clear
6:55 PM 84.2 °F 84.4 °F 60.8 °F 45% 29.87 in 10.0 mi South 20.7 mph 27.6 mph N/A   Clear
7:15 PM 84.2 °F 84.4 °F 60.8 °F 45% 29.87 in 10.0 mi South 17.3 mph 23.0 mph N/A   Clear
7:35 PM 84.2 °F 84.4 °F 60.8 °F 45% 29.86 in 10.0 mi SSE 19.6 mph 25.3 mph N/A   Clear
7:55 PM 80.6 °F 81.5 °F 60.8 °F 51% 29.88 in 10.0 mi SE 19.6 mph 24.2 mph N/A   Clear
8:15 PM 78.8 °F - 60.8 °F 54% 29.89 in 10.0 mi SE 19.6 mph 27.6 mph N/A   Clear
8:35 PM 78.8 °F - 60.8 °F 54% 29.90 in 10.0 mi SE 18.4 mph 25.3 mph N/A   Clear
8:55 PM 75.2 °F - 60.8 °F 61% 29.90 in 10.0 mi SE 17.3 mph - N/A   Clear
9:15 PM 75.2 °F - 60.8 °F 61% 29.90 in 10.0 mi SE 19.6 mph 23.0 mph N/A   Clear
9:35 PM 73.4 °F - 60.8 °F 65% 29.90 in 10.0 mi SE 16.1 mph - N/A   Clear
9:55 PM 73.4 °F - 60.8 °F 65% 29.92 in 10.0 mi SE 13.8 mph - N/A   Clear
10:15 PM 73.4 °F - 60.8 °F 65% 29.92 in 10.0 mi SE 17.3 mph - N/A   Clear
10:35 PM 71.6 °F - 59.0 °F 64% 29.93 in 10.0 mi SE 13.8 mph - N/A   Clear
10:55 PM 71.6 °F - 59.0 °F 64% 29.94 in 10.0 mi SE 11.5 mph - N/A   Clear
11:15 PM 71.6 °F - 59.0 °F 64% 29.95 in 10.0 mi SSE 12.7 mph - N/A   Clear
11:35 PM 69.8 °F - 59.0 °F 68% 29.95 in 10.0 mi SSE 12.7 mph - N/A   Clear
11:55 PM 69.8 °F - 59.0 °F 68% 29.96 in 10.0 mi SSE 10.4 mph - N/A   Clear